#timestamp,LO_Frequency,Hit 
1500948015.6,286047007.9,N
1500948035.5,286047009.5,N
1500948055.3,286047008.3,N
1500948075.1,286047006.2,N
1500948095.9,286047004.7,N
1500948115.7,286047003.1,N
1500948135.5,286047002.4,N
1500948155.4,286047004.1,N
1500948175.2,286047007.5,N
1500948195.0,286047005.2,N
1500948195.9,286047005.2,N
1500948215.7,286047001.6,N
1500948235.6,286047007.0,N
1500948255.4,286047008.4,N
1500948275.3,286047009.0,Y
1500948295.1,286046993.7,N
1500948296.0,286046993.7,N
1500948315.8,286046995.5,N
1500948335.7,286046991.7,N
1500948355.5,286046992.0,N
1500948375.3,286046992.9,N
1500948395.1,286046993.2,N
1500948415.9,286046990.9,N
1500948435.7,286046992.8,N
1500948455.5,286046994.8,N
1500948475.4,286046994.3,N
1500948495.2,286046997.9,N
1500948515.0,286046999.4,N
1500948515.9,286046999.4,N
1500948535.8,286046998.8,N
1500948555.6,286046995.1,N
1500948575.4,286046994.5,N
1500948595.3,286046990.5,N
1500948615.1,286046987.4,N
1500948616.0,286046987.4,N
1500948635.8,286046985.8,N
1500948655.7,286046985.3,N
1500948675.5,286046986.5,N
1500948695.3,286046984.9,N
1500948715.1,286046986.3,N
1500948735.9,286046986.3,N
1500948755.7,286046982.6,N
1500948775.5,286046979.0,N
1500948795.4,286046978.0,N
1500948815.2,286046975.7,N
1500948835.0,286046976.0,N
1500948835.9,286046976.0,N
1500948855.8,286046974.2,N
1500948875.6,286046977.8,N
1500948895.4,286046980.8,N
1500948915.3,286046982.7,N
1500948935.1,286046979.1,N
1500948955.8,286046983.3,N
1500948975.7,286046981.0,N
1500948995.5,286046979.3,N
1500949015.3,286046981.9,N
1500949035.2,286046977.3,N
1500949055.9,286046979.1,N
1500949075.7,286046977.5,N
1500949095.5,286046977.2,N
1500949115.4,286046971.6,N
1500949135.2,286046974.0,N
1500949155.0,286046978.7,N
1500949155.9,286046978.7,N
1500949175.8,286046983.8,N
1500949195.6,286046984.1,N
1500949215.4,286046985.7,N
1500949235.3,286046990.0,N
1500949255.1,286046988.0,N
1500949256.0,286046988.0,N
1500949275.8,286046991.3,N
1500949295.7,286046988.2,N
1500949315.5,286046987.2,N
1500949335.3,286046987.2,N
1500949355.2,286046989.5,N
1500949375.9,286046988.5,N
1500949395.7,286046988.5,N
1500949415.5,286046992.0,N
1500949435.4,286046993.0,N
1500949455.2,286046992.4,N
1500949475.0,286046992.2,N
1500949475.9,286046992.2,N
1500949495.8,286046994.3,N
1500949515.6,286046990.3,N
1500949535.4,286046990.2,N
1500949555.3,286046994.2,N
1500949575.1,286046993.5,N
1500949595.8,286046996.7,N
1500949615.7,286046999.2,N
1500949635.5,286046997.5,N
1500949655.3,286046995.4,N
1500949675.2,286046997.7,N
1500949695.9,286046999.5,N
1500949715.7,286047000.2,N
1500949735.6,286046998.4,N
1500949755.4,286046996.2,N
1500949775.2,286046995.0,N
1500949795.1,286046995.8,N
1500949796.0,286046995.8,N
1500949815.8,286046992.1,N
1500949835.6,286046994.7,N
1500949855.4,286046994.3,N
1500949875.3,286046995.8,N
1500949895.1,286046995.4,N
1500949915.8,286046998.5,N
1500949935.7,286046999.1,N
1500949955.5,286046995.0,N
1500949975.3,286046997.4,N
1500949995.2,286046996.6,N
1500950015.9,286046996.8,N
1500950035.7,286046996.2,N
1500950055.6,286046996.8,N
1500950075.4,286046997.0,N
1500950095.2,286046995.8,N
1500950115.1,286046995.3,N
1500950116.0,286046995.3,N
1500950135.8,286046999.4,N
1500950155.6,286046998.8,N
1500950175.5,286046998.8,N
1500950195.3,286046995.3,N
1500950215.1,286046993.7,N
1500950235.9,286046997.7,N
1500950255.7,286046998.8,N
1500950275.5,286046998.8,N
1500950295.4,286046998.1,N
1500950315.2,286047001.1,N
1500950335.0,286047000.3,N
1500950335.9,286047000.3,N
1500950355.8,286047001.0,N
1500950375.6,286047000.4,N
1500950395.4,286046999.9,N
1500950415.2,286046999.5,N
1500950435.1,286046997.5,N
1500950436.0,286046997.5,N
1500950455.8,286046997.3,N
1500950475.6,286046999.6,N
1500950495.5,286046999.3,N
1500950515.3,286047000.0,N
1500950535.1,286047000.1,N
1500950555.9,286047004.2,N
1500950575.7,286047004.1,N
1500950595.5,286047005.6,N
1500950615.4,286047005.8,N
1500950635.2,286047004.1,N
1500950655.0,286047001.9,N
1500950655.9,286047001.9,N
1500950675.8,286047005.2,N
1500950695.6,286047006.7,N
1500950715.4,286047005.6,N
1500950735.3,286047004.1,N
1500950755.1,286047004.4,N
1500950756.0,286047004.4,N
1500950775.8,286047001.8,N
1500950795.7,286047003.8,N
1500950815.5,286047005.8,N
1500950835.3,286047002.4,N
1500950855.1,286047005.2,N
1500950875.9,286047006.7,N
1500950895.7,286047009.0,N
1500950915.5,286047004.9,N
1500950935.4,286047007.1,N
1500950955.2,286047007.5,N
1500950975.0,286047003.1,N
1500950975.9,286047003.1,N
1500950995.8,286047005.5,N
1500951015.6,286047003.3,N
1500951035.4,286047001.7,N
1500951055.3,286047005.4,N
1500951075.1,286047004.5,N
1500951076.0,286047004.5,N
1500951095.8,286047007.6,N
1500951115.7,286047004.1,N
1500951135.5,286047004.2,N
1500951155.3,286047003.2,N
1500951175.2,286046999.7,N
1500951195.9,286047002.2,N
1500951215.7,286047005.9,N
1500951235.6,286047001.8,N
1500951255.4,286047000.5,N
1500951275.2,286047002.4,N
1500951295.1,286047002.3,N
1500951296.0,286047002.3,N
1500951315.8,286047003.4,N
1500951335.6,286047005.6,N
1500951355.5,286047007.2,N
1500951375.3,286047007.1,N
1500951395.1,286047005.3,N
1500951415.9,286047005.5,N
1500951435.7,286047007.0,N
1500951455.5,286047006.2,N
1500951475.4,286047007.2,N
1500951495.2,286047003.2,N
1500951515.0,286047007.1,N
1500951515.9,286047007.1,N
1500951535.8,286047010.1,N
1500951555.6,286047008.1,N
1500951575.4,286047009.1,N
1500951595.3,286047008.4,N
